Location: Kailua
(21.4020°N, 157.7390°W)
Time: 22:53:22
(UTC-10:00)

Daily predictions for brighter satellites

Satellite Brightness Start Highest point End
(mag) Time Altitude Azimuth Time Altitude Azimuth Time Altitude Azimuth
Cosmos 1953 2.5 19:36:46 10° N 19:40:42 53° E 19:44:36 10° SSE
Cosmos 2227 Rocket 2.3 19:36:50 10° S 19:42:22 57° ESE 19:47:53 10° NNE
Orbus 7S 4.3 19:42:42 10° WNW 19:45:02 37° NNE 19:48:26 10° E
ORS 1 (USA 231) 4.4 19:44:07 10° NW 19:47:08 86° SW 19:50:08 10° SE
GPS 2-05 Rocket1 4.4 19:46:09 10° S 19:47:56 14° SE 19:49:42 10° ESE
Cosmos 1707 2.7 19:45:05 10° S 19:48:54 64° E 19:52:46 10° NNE
Cosmos 972 4.5 19:45:29 10° N 19:50:25 68° ENE 19:55:45 10° SSE
H-2A ROCKET BODY 1.6 19:52:06 10° SSW 19:53:40 20° SE 19:56:02 10° E
Resurs 01 Rocket 2.1 19:49:42 10° SSE 19:53:51 42° ENE 19:58:00 10° N
COSMOS 2428 3.0 19:48:56 10° N 19:54:29 51° ENE 19:59:59 10° SE
Cosmos 2360 Rocket 2.9 19:51:01 10° NNW 19:56:29 55° WSW 20:01:56 10° S
H-2A R/B 3.0 20:00:51 10° S 20:04:33 68° W 20:08:19 10° NNW
Resurs 1-3 3.7 20:02:33 10° SSE 20:06:49 55° ENE 20:11:06 10° N
ALOS 4.0 20:07:20 10° SSW 20:11:30 32° W 20:15:41 10° NW
Delta 2 Rocket 4.4 20:09:17 10° SW 20:14:34 44° SE 20:20:02 10° ENE
Cosmos 676 Rocket 4.2 20:11:48 10° SSW 20:17:02 76° WNW 20:22:16 10° N
Cosmos 1939 Rocket 4.1 20:16:17 19° ESE 20:17:40 24° ENE 20:20:53 10° NNE
Spot 2 Rocket 3.4 20:13:10 10° SSE 20:18:11 77° ENE 20:23:13 10° N
Cosmos 2333 Rocket 2.9 20:15:01 10° N 20:20:13 37° ENE 20:23:18 21° ESE
Cosmos 2219 Rocket 2.5 20:15:58 10° N 20:21:27 49° ENE 20:25:01 21° SE
Orbus 7S? 3.3 20:19:00 10° NW 20:23:10 60° WSW 20:24:44 23° SSE
SL-24 DEB 4.2 20:19:03 10° SSE 20:23:44 73° E 20:28:28 10° N
Aureole 2 Rocket 4.1 20:21:43 10° NNE 20:24:47 21° ENE 20:25:22 21° E
USA 234 3.2 20:18:27 10° NE 20:25:00 86° SE 20:31:33 10° SW
Cosmos 1821 Rocket 4.0 20:19:03 10° N 20:25:27 84° E 20:31:46 10° S
Cosmos 2084 3.3 20:26:17 10° SSW 20:30:27 57° ESE 20:34:23 10° NE
Meteor 1-29 2.9 20:27:44 10° NNE 20:31:07 58° E 20:32:54 25° S
Cosmos 1340 Rocket 3.1 20:29:49 27° SSE 20:31:27 43° E 20:35:16 10° NNE
Helios 1A 3.6 20:32:17 30° ESE 20:33:33 38° ENE 20:37:23 10° N
DELTA 2 R/B (1) 4.2 20:31:21 10° NW 20:36:44 46° NNE 20:39:44 24° E
OAO 3 Rocket 3.9 20:36:24 10° NW 20:40:51 43° NNE 20:43:00 26° E
Cosmos 1842 Rocket 3.9 20:36:43 10° NNE 20:40:52 42° E 20:41:45 37° ESE
Cosmos 1934 Rocket 3.9 20:34:57 10° N 20:41:04 85° E 20:45:59 16° S
Envisat 2.9 20:39:29 24° SSE 20:42:35 77° ENE 20:47:39 10° N
Cosmos 2297 Rocket 3.3 20:37:41 10° SW 20:43:03 45° WNW 20:48:26 10° N
SL-19 R/B 4.3 20:39:55 22° SSE 20:43:49 75° ENE 20:49:26 10° N
ATLAS 2AS CENTAUR R/B 3.4 20:38:21 10° NW 20:45:42 53° WSW 20:51:21 15° S
Helios 1B rocket 3.0 20:42:01 10° N 20:46:06 60° WNW 20:50:08 10° SSW
Cosmos 1605 Rocket 4.0 20:43:41 10° N 20:49:55 66° E 20:53:18 29° SSE
USA 32 3.9 20:47:45 25° S 20:50:50 72° E 20:56:04 10° N
USA 186 3.3 20:51:25 20° WSW 20:52:01 22° W 20:54:02 10° NW
Meteor 2-15 Rocket 4.3 20:47:04 10° S 20:53:08 89° E 20:59:12 10° N
Cosmos 1727 Rocket 4.1 20:49:50 10° S 20:56:06 80° W 21:02:26 10° N
YAOGAN 6 3.0 20:57:40 46° NE 20:57:40 46° NE 21:00:42 10° N
SWIFT 3.4 20:59:52 10° W 21:03:22 33° SSW 21:03:22 33° SSW
Cosmos 1867 3.6 20:58:27 10° SSW 21:03:51 79° WNW 21:09:18 10° NNE
Cosmos 1241 Rocket 4.4 20:58:49 10° NNW 21:05:07 71° ENE 21:06:57 46° SE
Cosmos 1076 Rocket 4.0 21:06:41 44° ENE 21:06:41 44° ENE 21:10:07 10° NNE
ATLAS 5 CENTAUR R/B 3.2 21:02:57 10° SW 21:07:07 36° WNW 21:11:29 10° N
Okean 3 Rocket 3.5 21:09:02 64° S 21:09:43 88° E 21:14:14 10° N
Cosmos 1980 3.6 21:06:03 10° NNW 21:11:45 87° ENE 21:13:08 54° SSE
Cosmos 1674 3.9 21:14:22 33° NNE 21:14:22 33° NNE 21:16:35 10° NNE
Cosmos 1356 Rocket 4.1 21:14:02 43° NE 21:14:02 43° NE 21:17:05 10° NNE
Palapa 6 Rocket 3.0 21:11:36 10° W 21:16:31 75° N 21:16:37 74° N
Atlas Centaur 2 3.1 21:14:23 10° NW 21:17:06 20° N 21:17:40 19° NNE
Milstar 3 Cent rocket 3.9 21:10:54 10° WNW 21:18:22 68° NNE 21:28:52 23° E
Cosmos 2237 Rocket 2.1 21:16:43 10° NNW 21:22:20 81° WSW 21:23:18 62° S
MOS 1-B Rocket 4.3 21:24:33 50° SSE 21:26:39 81° ENE 21:34:37 10° N
Cosmos 2221 3.4 21:22:59 10° N 21:26:01 41° NNE 21:26:01 41° NNE
Palapa B4 Rocket 4.4 21:27:25 10° W 21:29:55 32° SW 21:29:55 32° SW
H-2A R/B 3.6 21:33:50 24° NE 21:33:50 24° NE 21:36:48 10° NNE
SPOT 5 4.1 21:37:29 31° NNE 21:37:29 31° NNE 21:40:26 10° N
ERS-1 Rocket 3.1 21:41:41 70° WNW 21:41:41 70° WNW 21:46:17 10° NNW
ARGOS 3.6 21:43:39 52° NNE 21:43:39 52° NNE 21:47:59 10° N
SL-16 R/B 2.6 21:39:41 10° N 21:44:19 52° NNE 21:44:19 52° NNE
MetOp-A 4.3 21:47:23 70° NNW 21:47:23 70° NNW 21:52:05 10° NNW
Cosmos 2333 Rocket 4.2 22:00:23 10° WNW 22:04:04 18° W 22:05:20 17° WSW
Cosmos 2061 Rocket 4.4 22:10:16 10° NNW 22:15:56 62° WNW 22:15:56 62° WNW
Cosmos 2123 Rocket 4.5 22:19:24 56° NW 22:19:24 56° NW 22:24:24 10° N
Terra 4.2 22:28:39 17° N 22:28:39 17° N 22:29:45 10° N
Cosmos 2263 Rocket 4.2 22:43:47 22° N 22:43:47 22° N 22:45:43 10° NNE
